This demonstration page uses our WeatherBlox Daily Observations layout. Learn more.

Left ArrowRight Arrow

Hourly Observations for September 11, 2018

Temp ( °F °C ) Dew Point ( °F °C ) Humidity (%) Winds ( mph kmh ) Pressure ( in mb ) Visibility ( mi km ) Precip ( " mm )
12:57 am 00:57 Clear 62 16.7 59 15 90 90 S 14 22 29.94 1014 10 16 0.00 0.00
1:57 am 01:57 Clear 61 16.1 59 15 93 93 S 14 22 29.93 1014 10 16 0.00 0.00
2:57 am 02:57 Clear 60 15.6 58 14.4 93 93 S 14 22 29.93 1014 10 16 0.00 0.00
3:57 am 03:57 Clear 59 15 58 14.4 96 96 S 12 19 29.93 1014 10 16 0.00 0.00
4:57 am 04:57 Clear 59 15 58 14.4 96 96 S 12 19 29.92 1013 10 16 0.00 0.00
5:41 am 05:41 Mostly Clear 59 15 57 14 94 94 S 13 20 29.94 1014 10 16 0.00 0.00
5:57 am 05:57 Clear 59 15 57 13.9 93 93 S 12 19 29.92 1013 10 16 0.00 0.00
6:08 am 06:08 Partly Cloudy 59 15 57 14 94 94 S 12 19 29.94 1014 10 16 0.00 0.00
6:57 am 06:57 Clear 59 15 57 13.9 93 93 S 10 17 29.92 1013 10 16 0.00 0.00
7:05 am 07:05 Mostly Clear 57 14 57 14 100 100 S 12 19 29.94 1014 10 16 0.00 0.00
7:57 am 07:57 Sunny 60 15.6 58 14.4 93 93 S 12 19 29.92 1013 10 16 0.00 0.00
8:57 am 08:57 Sunny 63 17.2 59 15 87 87 S 15 24 29.92 1013 10 16 0.00 0.00
9:57 am 09:57 Sunny 67 19.4 61 16.1 81 81 S 21 33 29.92 1013 10 16 0.00 0.00
10:57 am 10:57 Sunny 72 22.2 62 16.7 71 71 S 21 33 29.91 1013 10 16 0.00 0.00
11:57 am 11:57 Sunny 76 24.4 63 17.2 64 64 S 24 39 29.90 1012 10 16 0.00 0.00
12:57 pm 12:57 Sunny 80 26.7 65 18.3 60 60 S 22 35 29.88 1012 10 16 0.00 0.00
1:57 pm 13:57 Sunny 82 27.8 65 18.3 56 56 S 23 37 29.87 1012 10 16 0.00 0.00
2:57 pm 14:57 Sunny 83 28.3 66 18.9 57 57 S 25 41 29.86 1011 10 16 0.00 0.00
3:57 pm 15:57 Sunny 83 28.3 66 18.9 57 57 S 25 41 29.85 1011 10 16 0.00 0.00
4:57 pm 16:57 Sunny 83 28.3 65 18.3 55 55 S 22 35 29.85 1011 10 16 0.00 0.00
5:57 pm 17:57 Sunny 81 27.2 63 17.2 54 54 S 21 33 29.85 1011 10 16 0.00 0.00
6:57 pm 18:57 Sunny 78 25.6 64 17.8 62 62 SSE 14 22 29.85 1011 10 16 0.00 0.00
7:57 pm 19:57 Clear 74 23.3 62 16.7 67 67 SSE 15 24 29.86 1011 10 16 0.00 0.00
8:57 pm 20:57 Clear 71 21.7 61 16.1 71 71 SSE 13 20 29.90 1013 10 16 0.00 0.00
9:57 pm 21:57 Clear 68 20 60 15.6 76 76 SSE 14 22 29.91 1013 10 16 0.00 0.00
10:57 pm 22:57 Clear 67 19.4 60 15.6 79 79 S 16 26 29.91 1013 10 16 0.00 0.00
11:57 pm 23:57 Clear 66 18.9 61 16.1 84 84 S 15 24 29.93 1013 10 16 0.00 0.00

Powered by AerisWeather